This is the latest recevied weather packets stored in our database for station/object K1AWR. If no packets are shown the sender has not sent any weather packets the latest 1 day(s).
| Time | Temp. | Humidity | Pressure | Rain* | Wind** | Luminosity | Snow |
|---|---|---|---|---|---|---|---|
| 1778008680 | 27.78° C | 40% | 1007.6 hPa | 0 mm | 1.34 m/s, 192° | 586 W/m² | - |
| 1778008378 | 27.78° C | 43% | 1007.5 hPa | 0 mm | 0.89 m/s, 326° | 596 W/m² | - |
| 1778008074 | 27.22° C | 41% | 1007.7 hPa | 0 mm | 2.68 m/s, 199° | 612 W/m² | - |
| 1778007769 | 27.78° C | 41% | 1007.9 hPa | 0 mm | 1.79 m/s, 195° | 614 W/m² | - |
| 1778007466 | 28.33° C | 42% | 1007.7 hPa | 0 mm | 1.34 m/s, 200° | 636 W/m² | - |
| 1778007162 | 28.89° C | 41% | 1007.6 hPa | 0 mm | 0.45 m/s, 158° | 647 W/m² | - |
| 1778006858 | 27.78° C | 40% | 1007.4 hPa | 0 mm | 1.79 m/s, 188° | 653 W/m² | - |
| 1778006556 | 27.78° C | 43% | 1007.9 hPa | 0 mm | 1.34 m/s, 187° | 656 W/m² | - |
| 1778006253 | 27.78° C | 41% | 1007.9 hPa | 0 mm | 1.79 m/s, 270° | 666 W/m² | - |
| 1778005951 | 27.78° C | 43% | 1008.1 hPa | 0 mm | 1.34 m/s, 196° | 683 W/m² | - |
| 1778005646 | 27.22° C | 44% | 1007.6 hPa | 0 mm | 0.89 m/s, 245° | 689 W/m² | - |
| 1778005343 | 27.78° C | 42% | 1008 hPa | 0 mm | 2.68 m/s, 196° | 694 W/m² | - |
| 1778005039 | 27.78° C | 42% | 1007.7 hPa | 0 mm | 1.79 m/s, 203° | 711 W/m² | - |
| 1778004737 | 27.22° C | 41% | 1008 hPa | 0 mm | 2.68 m/s, 183° | 714 W/m² | - |
| 1778004434 | 27.22° C | 45% | 1008.1 hPa | 0 mm | 1.79 m/s, 188° | 721 W/m² | - |
| 1778004130 | 27.22° C | 42% | 1008 hPa | 0 mm | 1.79 m/s, 166° | 729 W/m² | - |
| 1778003826 | 27.22° C | 45% | 1007.9 hPa | 0 mm | 0.89 m/s, 279° | 738 W/m² | - |
| 1778003523 | 27.22° C | 43% | 1008.2 hPa | 0 mm | 0.89 m/s, 171° | 742 W/m² | - |
| 1778003219 | 27.22° C | 43% | 1008.1 hPa | 0 mm | 0.45 m/s, 310° | 747 W/m² | - |
| 1778002915 | 27.22° C | 44% | 1008.4 hPa | 0 mm | 1.79 m/s, 152° | 750 W/m² | - |
| 1778002613 | 26.67° C | 44% | 1008.4 hPa | 0 mm | 2.24 m/s, 174° | 754 W/m² | - |
| 1778002309 | 26.11° C | 44% | 1008.3 hPa | 0 mm | 2.68 m/s, 156° | 756 W/m² | - |
| 1778002007 | 26.67° C | 43% | 1008.6 hPa | 0 mm | 2.24 m/s, 214° | 758 W/m² | - |
| 1778001704 | 26.67° C | 43% | 1008.6 hPa | 0 mm | 0.45 m/s, 193° | 762 W/m² | - |
| 1778001403 | 26.67° C | 44% | 1008.6 hPa | 0 mm | 0.89 m/s, 161° | 763 W/m² | - |
* Rain latest hour (hover to see other rain measurements)
** Current wind speed in m/s (hover to see current wind gust speed)